{"data":{"norad_id":53542,"epoch":"2026-09-20T06:31:54.776064Z","epoch_age_seconds":98152,"freshness":"FRESH","line1":"1 53542U 22101R   26263.27216176  .00000659  00000+0  30643-4 0  9995","line2":"2 53542  53.1573 254.8234 0001237  82.9706 277.1438 15.34392428226584","mean_motion":15.34392428,"eccentricity":0.0001237,"inclination_deg":53.1573,"raan_deg":254.8234,"arg_perigee_deg":82.9706,"mean_anomaly_deg":277.1438,"bstar":3.0643e-5,"rev_number":22658,"period_min":93.848221206159,"perigee_km":461.87953115772,"apogee_km":463.57196060105,"semimajor_km":6840.8627458794,"source":"CELESTRAK","updated_at":"2026-09-21T09:00:32.902008Z"}}